Regional Weather Roundup
Issued by NWS

Home | Current Version | Previous Version | Text Only | Print | Product List | Glossary Off
Versions: 1 2 3 4 5 6 7 8 9 10 11 12 13 14 15 16 17 18 19 20 21 22 23 24 25 26 27 28 29 30 31 32 33 34 35 36 37 38 39 40 41 42 43 44 45 46 47 48 49 50

000
ASUS43 KFSD 191402
RWRSD

WEATHER ROUNDUP FOR SOUTH DAKOTA
NATIONAL WEATHER SERVICE SIOUX FALLS SD
800 AM CST MON FEB 19 2018

NOTE: "FAIR" INDICATES FEW OR NO CLOUDS BELOW 12,000 FEET WITH NO
SIGNIFICANT WEATHER AND/OR OBSTRUCTIONS TO VISIBILITY.


SDZ001>005-009-010-012>017-191500-
NORTHWEST AND NORTH CENTRAL SOUTH DAKOTA

CITY           SKY/WX    TMP DP  RH WIND       PRES   REMARKS
BUFFALO          N/A      1  -7  68 NE13      29.94F WCI -17
FAITH            N/A     -1  -4  87 N13       30.04R WCI -19
MOBRIDGE       PTCLDY     6   0  76 N10       30.07R WCI  -9
$$

SDZ012>016-024>037-041>051-057-063-072>074-191500-
SOUTHWEST AND SOUTH CENTRAL SOUTH DAKOTA

CITY           SKY/WX    TMP DP  RH WIND       PRES   REMARKS
RAPID CTY ARPT LGT SNOW   1  -3  83 N16       30.00R FOG     WCI -19
PIERRE         FLURRIES   6   3  87 N15       30.05F WCI -12
CUSTER         LGT SNOW  -2  -8  76 NE3       29.70R
ELLSWORTH AFB  CLOUDY     1  -2  87 N8        29.99  WCI -13
PHILIP         CLOUDY     4   1  88 N13       30.05R WCI -13
PINE RIDGE     LGT SNOW   3  -1  83 N14       29.94R FOG     WCI -15
SPEARFISH      FLURRIES  -2  -8  78 SE5       29.93S WCI -12
WINNER         LGT SNOW  10   4  76 N14       29.98S WCI  -6
$$

SDZ004>011-016>023-039-040-191500-
NORTHEAST SOUTH DAKOTA

CITY           SKY/WX    TMP DP  RH WIND       PRES   REMARKS
ABERDEEN       LGT SNOW   7   2  80 N17       30.09F WCI -12
WATERTOWN      LGT SNOW   8   4  83 N22G31    29.93F FOG     WCI -12
BROOKINGS      LGT SNOW  10   5  80 N22G32    29.90R WCI -10
SISSETON         N/A      8   4  83 N21       30.07S WCI -12
$$

SDZ017-020-022-023-036>040-048>070-191500-
SOUTHEAST SOUTH DAKOTA

CITY           SKY/WX    TMP DP  RH WIND       PRES   REMARKS
SIOUX FALLS    CLOUDY    15  11  83 N17G23    29.88R WCI  -1
HURON          CLOUDY     9   4  80 N26G32    30.01R WCI -13
CHAMBERLAIN    CLOUDY    10   6  81 NW21G32   29.98F HAZE    WCI  -9
MITCHELL       CLOUDY    12   7  80 N22G29    29.98R WCI  -7
YANKTON        CLOUDY    17  13  84 N17G26    29.90R WCI   1
$$

ABBREVIATIONS USED IN REMARKS
   TC - TEMPERATURE IN CELSIUS
  WCI - WIND CHILL INDEX
   HX - HEAT INDEX
  VSB - VISIBILITY





USA.gov is the U.S. government's official web portal to all federal, state and local government web resources and services.